User: anonymous   Login
Location: Janeiro
(34.9957°N, 76.7652°W)
Time: 00:50:31
(UTC+00:00)
Language:

Cosmos 2297 - Orbit

View from above orbital plane
View from above orbital plane
View from above satellite
View from above satellite

Ground track
Ground track

The orbit data is extracted from the following two-line orbital elements,

1 23404U 94077A   20047.74187237 -.00000134  00000-0 -45728-4 0  9992
2 23404  71.0138  52.8709 0013100 111.4733 248.7787 14.13536115301783
Epoch (UTC): 16 February 2020 17:48:17
Eccentricity: 0.0013100
inclination: 71.0138°
perigee height: 838 km
apogee height: 857 km
right ascension of ascending node: 52.8709°
argument of perigee: 111.4733°
revolutions per day: 14.13536115
mean anomaly at epoch: 248.7787°
orbit number at epoch: 30178

The dashed part of the orbit path shows where the satellite is in the earth's shadow,  

DLR